Location: Kumla
(59.1265°N, 15.1401°E)
Time: 16:09:49
(UTC+01:00)

Transit 2A - Pass Details

Date: 11 December 2023
Orbit: 600 x 953 km, 66.7° (Epoch: 21 February)

Event Time Altitude Azimuth Distance (km) Brightness Sun altitude
Rises 22:51:15 0° 309° (NW) 2,869 - -52.3°
Reaches altitude 10° 22:53:48 10° 295° (WNW) 1,953 - -52.4°
Maximum altitude 22:57:18 24° 242° (WSW) 1,263 - -52.6°
Drops below altitude 10° 23:00:50 10° 188° (S) 1,974 - -52.7°
Sets 23:03:27 0° 174° (S) 2,908 - -52.9°
